Regional Weather Roundup
Issued by NWS

Home | Current Version | Previous Version | Graphics & Text | Print | Product List | Glossary On
Versions: 1 2 3 4 5 6 7 8 9 10 11 12 13 14 15 16 17 18 19 20 21 22 23 24 25 26 27 28 29 30 31 32 33 34 35 36 37 38 39 40 41 42 43 44 45 46 47 48 49 50
000
ASUS43 KMKX 280200
RWRWI

WISCONSIN REGIONAL WEATHER ROUNDUP
NATIONAL WEATHER SERVICE MILWAUKEE/SULLIVAN WI
900 PM CDT MON MAR 27 2017

NOTE: "FAIR" INDICATES FEW OR NO CLOUDS BELOW 12,000 FEET WITH NO
SIGNIFICANT WEATHER AND/OR OBSTRUCTIONS TO VISIBILITY.

WIZ001-002-006>008-014>016-023>028-280300-
NORTHWEST WISCONSIN

CITY           SKY/WX    TMP DP  RH WIND       PRES   REMARKS
SUPERIOR ARPT  CLEAR     34  31  90 CALM      30.02R
ASHLAND        CLEAR     31  29  92 CALM      30.03R
HAYWARD        CLEAR     41  30  65 NE6       30.00R
SIREN          CLEAR     47  31  53 CALM      30.00R
CUMBERLAND     CLEAR     43  34  70 CALM      29.98R
RICE LAKE      CLEAR     42  35  78 CALM      30.00R
CHETEK         CLEAR     39  36  89 E3        29.99R
LADYSMITH      CLEAR     38  33  79 CALM      29.99R
EAU CLAIRE     NOT AVBL
MENOMONIE      CLEAR     44  38  79 CALM      29.99R
NEW RICHMOND   CLEAR     42  36  78 CALM      29.99R
OSCEOLA        CLEAR     42  33  71 CALM      30.01R
$$

WIZ003>005-009-010-017-018-280300-
NORTH CENTRAL WISCONSIN

CITY           SKY/WX    TMP DP  RH WIND       PRES   REMARKS
MANITOWISH WTR CLOUDY    40  32  74 N5        29.99R
ARBOR VITAE    CLOUDY    37  32  85 CALM      29.98R
WOODRUFF       CLOUDY    37  32  85 CALM      29.98R
RHINELANDER    CLEAR     33  29  85 CALM      29.98R
EAGLE RIVER    CLEAR     31  30  97 CALM      29.98R
LAND O LAKES   CLOUDY    32  30  92 CALM      30.00R
PHILLIPS       CLEAR     36  32  84 CALM      29.97R
TOMAHAWK       CLEAR     31  29  92 CALM      29.98R
MEDFORD        CLEAR     34  33  96 CALM      29.97S
MERRILL        CLEAR     37  37 100 CALM      29.98R
$$

WIZ029-030-035-036-043>047-280300-
CENTRAL WISCONSIN

CITY           SKY/WX    TMP DP  RH WIND       PRES   REMARKS
WAUSAU         MOCLDY    40  37  89 CALM      29.97R
MOSINEE        MOCLDY    41  39  93 N3        29.99R
MARSHFIELD     CLOUDY    41  36  82 CALM      29.97R
STEVENS POINT  CLOUDY    39  39  99 CALM      29.99R
WAUPACA        CLOUDY    43  41  93 CALM      30.00R
WAUTOMA        CLOUDY    42  41  96 N6        30.00R
WISC RAPIDS    CLOUDY    41  40  96 CALM      30.00R
CAMP DOUGLAS   NOT AVBL
$$

WIZ011>013-019>022-031-037>040-048>050-280300-
NORTHEAST WISCONSIN

CITY           SKY/WX    TMP DP  RH WIND       PRES   REMARKS
ANTIGO         CLOUDY    37  36  96 CALM      29.97S
SHAWANO        CLOUDY    42  38  88 CALM      30.00R
OCONTO         CLOUDY    37  33  86 CALM      30.00R
STURGEON BAY   NOT AVBL
GREEN BAY      CLOUDY    40  38  93 N3        30.00R
MANITOWOC      CLOUDY    37  34  87 CALM      30.00R
APPLETON       CLOUDY    39  37  93 CALM      29.97R
CLINTONVILLE   CLOUDY    41  37  87 CALM      30.00R
OSHKOSH        CLOUDY    41  38  89 NE6       29.99R
$$

WIZ032>034-041-042-053>061-280300-
SOUTHWEST WISCONSIN

CITY           SKY/WX    TMP DP  RH WIND       PRES   REMARKS
LA CROSSE      CLOUDY    46  39  76 N5        29.98R
SPARTA         CLOUDY    43  39  84 N5        29.99R
VIROQUA        CLOUDY    43  43  99 CALM      29.97R
BOSCOBEL       CLOUDY    48  45  89 CALM      29.98R
PRAIRIE DU CHI CLOUDY    46  44  93 CALM      29.97R
PLATTEVILLE    CLOUDY    47  47 100 N3        29.97R
$$

WIZ056-057-062-063-064-067-068-280300-
SOUTH CENTRAL WISCONSIN

CITY           SKY/WX    TMP DP  RH WIND       PRES   REMARKS
REEDSBURG      CLOUDY    44  44 100 N5        29.97R
BARABOO/DELLS  CLOUDY    45  42  92 N3        29.97R
LONE ROCK      CLOUDY    46  46 100 CALM      29.98R FOG
MINERAL POINT  CLOUDY    46  46 100 CALM      29.96R FOG
MADISON        LGT RAIN  46  44  93 NE5       29.96R
MIDDLETON      CLOUDY    47  47  98 NE3       29.97R
WATERTOWN      CLOUDY    45  45 100 NE5       29.95R
MONROE         CLOUDY    45  43  93 N7        29.95R
JANESVILLE     CLOUDY    48  46  93 NE8       29.95R
$$

WIZ051-052-058>065-066-070>072-280300-
SOUTHEAST WISCONSIN

CITY           SKY/WX    TMP DP  RH WIND       PRES   REMARKS
MILWAUKEE      CLOUDY    39  36  89 N8        29.98R WCI  33
WAUKESHA       CLOUDY    37  36  93 E12       29.98R WCI  30
MILWAUKEE/TIMM CLOUDY    37  34  87 NE7       29.99R WCI  32
RACINE         CLOUDY    38  35  89 N10       29.99R WCI  31
KENOSHA        CLOUDY    40  37  89 NE7       29.97R
FOND DU LAC    CLOUDY    42  37  82 N7        29.98R HAZE
SHEBOYGAN      CLOUDY    37  34  89 NE5       29.99R WCI  33
WEST BEND      CLOUDY    37  37 100 E8        29.98R FOG     WCI  31
JUNEAU         CLOUDY    43  40  91 N3        29.97R
$$

LSZ147-162-280300-
LAKE SUPERIOR

STATION/POSITION TIME  TEMP    WIND        PRES    WAVE
                       AIR SEA DIR/SP/G            HT/PER
                 (UTC) (F)     (DEG/KT/KT) (MB)    (FT/S)
DEVILS ISLAND    0100   37     110/  4/  5 1017.1R
PORT WING        0140   32     160/  3/  3 1016.6S
SAXON HARBOR     0130   33     180/  1/  4 1016.6R
$$

LMZ867-665-643>646-280300-
LAKE MICHIGAN

STATION/POSITION TIME  TEMP    WIND        PRES    WAVE
                       AIR SEA DIR/SP/G            HT/PER
                 (UTC) (F)     (DEG/KT/KT) (MB)    (FT/S)
CHAMBERS ISLAND  0140   36        CALM     1015.6R
NORTHPORT PIER   0140   36        CALM     1015.9R
SISTER BAY       2336   37        CALM       N/A
KEWAUNEE LAKESHO 0130   37      CALM  /  1 1015.3R
SHEBOYGAN LAKESH 0100   36      10/  5/  6 1015.7R
PORT WASHINGTON  0130   38      30/  7/  9 1016.6R
MILWAUKEE LAKESH 0130   37      20/  9/ 11   N/A
KENOSHA   LAKESH 0100   38      30/  8/ 10 1014.6
$$

TC  - TEMPERATURE IN CELSIUS
VSB - VISIBILITY IN STATUTE MILES
WCI - WIND CHILL INDEX
HX  - HEAT INDEX





USA.gov is the U.S. government's official web portal to all federal, state and local government web resources and services.